Nashua, NH

5:33 PM EST on December 08, 2016 (GMT -0500)
Boire

Weather History for KASH - March, 2013

Change the Weather History Date:

Thursday, March 21, 2013

  Actual Average Record
Temperature  
Mean Temperature 26 °F -  
Max Temperature 38 °F 45 °F 81 °F (2012)
Min Temperature 16 °F 25 °F 2 °F (1956)
Degree Days  
Heating Degree Days 38    
Moisture  
Dew Point 16 °F    
Average Humidity 62    
Maximum Humidity 91    
Minimum Humidity 36    
Precipitation  
Precipitation 0.17 in - - ()
Sea Level Pressure  
Sea Level Pressure 30.47 in    
Wind  
Wind Speed 2 mph (NW)    
Max Wind Speed 9 mph    
Max Gust Speed -    
Visibility 10 miles    
Events      
Averages and records for this station are not official NWS values.
T = Trace of Precipitation, MM = Missing Value Source: NWS Daily Summary

Daily Weather History Graph

Daily Weather History Graph

Search for Another Location

Airport or City:

Trip Planner

Search our weather history database for the weather conditions in past years. The results will help you decide how hot, cold, wet, or windy it might be!

Date:

Astronomy

Mar. 21, 2013 Rise Set
Actual Time 6:47 AM EDT 6:59 PM EDT
Civil Twilight 6:18 AM EDT 7:28 PM EDT
Nautical Twilight 5:45 AM EDT 8:01 PM EDT
Astronomical Twilight 5:12 AM EDT 8:35 PM EDT
Moon 1:20 PM EDT (3/21) 3:13 AM EDT (3/21)
Length of Visible Light 13h 09m
Length of Day
12h 12m
Waxing Gibbous, 68% of the Moon is Illuminated
Mar 21
Waxing Gibbous
Mar 27
Full
Apr 3
Last Quarter
Apr 10
New
Apr 18
First Quarter

Hourly Weather History & Observations

Time (EDT) Temp. Windchill Dew Point Humidity Pressure Visibility Wind Dir Wind Speed Gust Speed Precip Events Conditions
12:51 AM 26.1 °F 21.9 °F 17.1 °F 69% 30.56 in 10.0 mi Variable 3.5 mph - N/A   Clear
1:51 AM 22.1 °F - 17.1 °F 81% 30.56 in 10.0 mi Calm Calm - N/A   Clear
2:51 AM 20.1 °F - 16.2 °F 85% 30.56 in 10.0 mi Calm Calm - N/A   Clear
3:51 AM 18.1 °F 12.9 °F 15.1 °F 88% 30.55 in 10.0 mi WNW 3.5 mph - N/A   Clear
5:51 AM 17.1 °F - 13.1 °F 84% 30.54 in 10.0 mi Calm Calm - N/A   Clear
6:51 AM 16.2 °F - 12.0 °F 84% 30.55 in 10.0 mi Calm Calm - N/A   Scattered Clouds
8:51 AM 22.1 °F - 16.2 °F 78% 30.55 in 10.0 mi Calm Calm - N/A   Partly Cloudy
9:51 AM 29.1 °F 20.6 °F 16.2 °F 58% 30.52 in 10.0 mi NNW 9.2 mph - N/A   Partly Cloudy
10:51 AM 32.0 °F 27.5 °F 13.1 °F 46% 30.50 in 10.0 mi NNW 4.6 mph - N/A   Mostly Cloudy
11:51 AM 34.0 °F - 12.0 °F 40% 30.49 in 10.0 mi Calm Calm - 0.02 in   Mostly Cloudy
12:51 PM 34.9 °F - 12.0 °F 39% 30.47 in 10.0 mi Calm Calm - 0.02 in   Partly Cloudy
1:51 PM 36.0 °F - 11.1 °F 36% 30.44 in 10.0 mi Calm Calm - 0.03 in   Partly Cloudy
3:51 PM 36.9 °F - 12.0 °F 36% 30.38 in 10.0 mi Calm Calm - 0.04 in   Partly Cloudy
4:51 PM 37.9 °F 35.5 °F 14.0 °F 38% 30.36 in 10.0 mi Variable 3.5 mph - 0.03 in   Clear
5:51 PM 37.9 °F - 14.0 °F 38% 30.36 in 10.0 mi Calm Calm - 0.02 in   Mostly Cloudy
6:51 PM 36.0 °F - 17.1 °F 46% 30.37 in 10.0 mi Calm Calm - 0.01 in   Scattered Clouds
7:51 PM 32.9 °F 28.5 °F 23.0 °F 67% 30.38 in 10.0 mi Variable 4.6 mph - N/A   Clear
8:51 PM 32.0 °F 28.7 °F 24.1 °F 73% 30.38 in 10.0 mi ESE 3.5 mph - N/A   Mostly Cloudy
11:51 PM 25.2 °F 20.9 °F 23.0 °F 91% 30.38 in 10.0 mi NW 3.5 mph - N/A   Mostly Cloudy